Zurück zum Katalog

HULIANWANG DIGUI-61

AktivKommunikationPO
NORAD 65167·PAYLOAD·🇨🇳 China

Gestartet Aug 13, 2025 von Wenchang Space Launch Site

Loading…

Nächste Überflüge (nächste 24 Stunden)

TLE

AktuellSource: Space-Track

Epoche: Sep 14, 2026, 14:06 UTC

1 65167U 25174D   26257.58757824  .00000015  00000-0  80397-6 0  9991
2 65167  86.4979 221.8491 0002363  82.4566 277.6836 13.24399736 52623

Verfolge HULIANWANG DIGUI-61 in Echtzeit mit AllMySat

Download on the App Store